This demonstration page uses our WeatherBlox Daily Observations layout. Learn more.

Left ArrowRight Arrow

39.29038, -76.61219

Hourly Observations for May 11, 2020

Temp ( °F °C ) Dew Point ( °F °C ) Humidity (%) Winds ( mph kmh ) Pressure ( in mb ) Visibility ( mi km ) Precip ( " mm )
12:54 am 00:54 undefined 54 12.2 48 8.9 80 80 undefined N/A 29.94 1014 N/A 0.00 0.00
1:54 am 01:54 undefined 53 11.7 48 8.9 83 83 undefined N/A 29.91 1013 N/A 0.00 0.00
2:54 am 02:54 undefined 52 11.1 43 6.1 72 72 undefined N/A 29.90 1012 N/A 0.00 0.00
3:54 am 03:54 undefined 51 10.6 43 6.1 74 74 undefined N/A 29.89 1012 N/A 0.00 0.00
4:54 am 04:54 undefined 50 10 42 5.6 74 74 undefined N/A 29.89 1012 N/A 0.00 0.00
5:54 am 05:54 undefined 51 10.6 41 5 69 69 undefined N/A 29.91 1013 N/A 0.00 0.00
6:54 am 06:54 undefined 50 10 45 7.2 83 83 undefined N/A 29.91 1013 N/A 0.03 0.76
7:54 am 07:54 undefined 53 11.7 43 6.1 69 69 undefined N/A 29.91 1013 N/A 0.01 0.25
8:54 am 08:54 undefined 57 13.9 40 4.4 53 53 undefined N/A 29.91 1013 N/A 0.00 0.00
9:54 am 09:54 undefined 59 15 34 1.1 39 39 undefined N/A 29.91 1013 N/A 0.00 0.00
10:54 am 10:54 undefined 58 14.4 33 0.6 39 39 undefined N/A 29.92 1013 N/A 0.00 0.00
11:54 am 11:54 undefined 59 15 35 1.7 41 41 undefined N/A 29.92 1013 N/A 0.00 0.00
12:54 pm 12:54 undefined 62 16.7 35 1.7 37 37 undefined N/A 29.91 1013 N/A 0.00 0.00
1:54 pm 13:54 undefined 60 15.6 34 1.1 38 38 undefined N/A 29.91 1013 N/A 0.00 0.00
2:54 pm 14:54 undefined 60 15.6 35 1.7 39 39 undefined N/A 29.92 1013 N/A 0.00 0.00
3:54 pm 15:54 undefined 61 16.1 33 0.6 35 35 undefined N/A 29.93 1014 N/A 0.00 0.00
4:54 pm 16:54 undefined 58 14.4 30 -1.1 35 35 undefined N/A 29.95 1014 N/A 0.00 0.00
5:54 pm 17:54 undefined 55 12.8 30 -1.1 38 38 undefined N/A 29.97 1015 N/A 0.00 0.00
6:54 pm 18:54 undefined 53 11.7 29 -1.7 40 40 undefined N/A 29.99 1016 N/A 0.00 0.00
7:54 pm 19:54 undefined 52 11.1 30 -1.1 43 43 undefined N/A 30.03 1017 N/A 0.00 0.00
8:54 pm 20:54 undefined 51 10.6 30 -1.1 44 44 undefined N/A 30.04 1017 N/A 0.00 0.00
9:54 pm 21:54 undefined 50 10 31 -0.6 48 48 undefined N/A 30.06 1018 N/A 0.00 0.00
10:54 pm 22:54 undefined 49 9.4 31 -0.6 50 50 undefined N/A 30.07 1018 N/A 0.00 0.00
11:54 pm 23:54 undefined 48 8.9 31 -0.6 52 52 undefined N/A 30.08 1019 N/A 0.00 0.00

Powered by AerisWeather